"startDT [UTC]","vpos","CH4 [ppm]","stdev(CH4) [ppm]","CO2 [ppm]","stdev(CO2) [ppm]","H2O_reported [%]","stdev(H2O_reported)","CavityPressure [torr]","CavityTemp [C]","OutletValve","CH4_dry [ppm]","CO2_dry [ppm]","DasTemp [C]","EtalonTemp [C]","WarmBoxTemp [C]","MPVPosition","T_ECpre [C]","T_EC1 [C]","T_EC2 [C]","p_inlet [hPa]","p_in [hPa]","p_out [hPa]","T_inlet [C]","RH_inlet [%]","dwpt_inlet [C]","T_vent [C]","RH_vent [%]","dwpt_vent [C]","flow_vent [l min-1]","flow_inlet [l min-1]","dwpt_sample [C]","T_room [C]"
2015-10-13 00:00:00,3.0,1.88799,0.03251,398.500,1.292,0.0851,0.1317,139.974,45.000,31498.61245,1.89306,399.024,36.728,45.068,45.000,0.00,0.09,-272.76,-272.81,-6,488,-943,21.7,11.7,-9.3,21.9,11.7,-9.1,5.73,2.08,-6.9,28.4
2015-10-13 00:01:00,3.0,1.87655,0.00046,397.017,0.042,0.0169,0.0015,139.998,45.000,31479.58240,1.87688,397.099,36.706,45.068,45.000,0.00,0.09,-272.74,-272.81,-8,487,-943,21.7,11.6,-9.4,21.9,11.6,-9.2,5.73,1.79,-6.9,28.3
2015-10-13 00:02:00,3.0,1.87651,0.00041,397.221,0.109,0.0161,0.0019,140.002,45.000,31476.05267,1.87677,397.292,36.688,45.068,45.001,0.00,0.09,-272.74,-272.80,-7,487,-943,21.7,11.6,-9.4,22.0,11.6,-9.1,5.73,1.98,-6.8,28.3
2015-10-13 00:03:00,3.0,1.87615,0.00043,397.420,0.035,0.0152,0.0023,140.002,45.000,31474.32844,1.87644,397.492,36.688,45.068,45.001,0.00,0.09,-272.75,-272.81,-7,487,-943,21.7,11.5,-9.4,21.9,11.6,-9.2,5.73,1.87,-6.9,28.4
2015-10-13 00:04:00,3.0,1.87612,0.00029,397.499,0.027,0.0126,0.0017,140.000,45.000,31471.94117,1.87634,397.558,36.689,45.068,45.001,0.00,0.09,-272.75,-272.80,-8,487,-943,21.7,11.6,-9.4,21.9,11.6,-9.2,5.73,1.90,-6.9,28.4
2015-10-13 00:05:00,3.0,1.87615,0.00041,397.527,0.036,0.0099,0.0022,139.999,45.000,31469.10630,1.87633,397.573,36.687,45.068,45.001,0.00,0.09,-272.74,-272.81,-6,487,-943,21.7,11.5,-9.5,22.0,11.6,-9.2,5.73,1.94,-6.8,28.5
2015-10-13 00:06:00,3.0,1.87637,0.00033,397.522,0.031,0.0085,0.0020,139.999,45.000,31467.55855,1.87653,397.564,36.681,45.068,45.000,0.00,0.09,-272.75,-272.80,-8,488,-943,21.8,11.5,-9.4,22.0,11.6,-9.2,5.73,1.83,-6.9,28.5
2015-10-13 00:07:00,3.0,1.87637,0.00046,397.541,0.028,0.0061,0.0015,140.000,45.000,31467.67529,1.87649,397.570,36.687,45.068,45.000,0.00,0.09,-272.74,-272.81,-7,488,-943,21.8,11.5,-9.5,22.0,11.6,-9.2,5.73,2.01,-6.9,28.5
2015-10-13 00:08:00,3.0,1.87653,0.00044,397.543,0.025,0.0062,0.0023,140.000,45.000,31467.68285,1.87663,397.572,36.689,45.068,45.000,0.00,0.09,-272.74,-272.80,-7,488,-943,21.8,11.5,-9.4,22.0,11.6,-9.1,5.73,1.77,-6.8,28.5
2015-10-13 00:09:00,3.0,1.87653,0.00038,397.532,0.031,0.0045,0.0018,140.002,45.000,31469.81959,1.87663,397.555,36.683,45.068,45.000,0.00,0.09,-272.75,-272.80,-8,488,-943,21.8,11.5,-9.4,22.1,11.6,-9.1,5.73,2.06,-6.8,28.5
2015-10-13 00:10:00,3.0,1.87634,0.00040,397.566,0.028,0.0043,0.0019,139.999,45.000,31471.52834,1.87641,397.587,36.685,45.068,45.000,0.00,0.09,-272.75,-272.81,-7,488,-943,21.9,11.4,-9.4,22.1,11.6,-9.2,5.73,1.72,-6.9,28.5
2015-10-13 00:11:00,3.0,1.87628,0.00035,397.551,0.033,0.0024,0.0016,139.998,45.000,31472.00650,1.87632,397.562,36.687,45.068,45.000,0.00,0.09,-272.75,-272.81,-8,489,-943,21.9,11.4,-9.5,22.1,11.5,-9.2,5.73,2.09,-6.8,28.5
2015-10-13 00:12:00,3.0,1.87609,0.00045,397.545,0.020,0.0027,0.0011,140.000,45.000,31473.95110,1.87614,397.558,36.693,45.068,45.000,0.00,0.09,-272.74,-272.80,-6,489,-943,21.9,11.4,-9.4,22.1,11.5,-9.2,5.73,1.71,-6.8,28.5
2015-10-13 00:13:00,3.0,1.87612,0.00039,397.532,0.043,0.0022,0.0015,140.000,45.000,31475.34497,1.87615,397.541,36.689,45.068,45.000,0.00,0.09,-272.75,-272.81,-8,489,-943,22.0,11.4,-9.4,22.1,11.5,-9.1,5.73,2.11,-6.8,28.6
2015-10-13 00:14:00,3.0,1.87637,0.00052,397.555,0.022,0.0032,0.0025,140.001,45.000,31474.80386,1.87645,397.571,36.691,45.068,45.000,0.00,0.09,-272.74,-272.81,-7,489,-943,22.0,11.5,-9.3,22.2,11.6,-9.1,5.73,1.69,-6.8,28.7
2015-10-13 00:15:00,3.0,1.87636,0.00028,397.570,0.034,0.0029,0.0021,139.999,45.000,31475.45351,1.87639,397.583,36.697,45.068,45.000,0.00,0.09,-272.75,-272.79,-7,489,-943,22.0,11.5,-9.3,22.2,11.6,-9.0,5.73,2.10,-6.8,28.6
2015-10-13 00:16:00,3.0,1.87621,0.00052,397.556,0.025,0.0019,0.0021,139.999,45.000,31477.99775,1.87625,397.566,36.710,45.068,45.000,0.00,0.09,-272.74,-272.80,-8,490,-943,22.0,11.4,-9.3,22.3,11.5,-9.0,5.73,1.72,-6.8,28.6
2015-10-13 00:17:00,3.0,1.87631,0.00040,397.565,0.032,0.0016,0.0021,139.998,45.000,31478.28520,1.87634,397.572,36.704,45.068,45.000,0.00,0.09,-272.75,-272.80,-6,490,-943,22.2,11.4,-9.3,22.3,11.5,-9.0,5.73,2.07,-6.8,28.7
2015-10-13 00:18:00,3.0,1.87633,0.00030,397.563,0.030,0.0025,0.0020,139.999,45.000,31479.09001,1.87639,397.575,36.693,45.068,45.000,0.00,0.09,-272.74,-272.81,-8,490,-943,22.2,11.2,-9.5,22.3,11.4,-9.2,5.73,1.74,-6.8,28.7
2015-10-13 00:19:00,3.0,1.87629,0.00044,397.568,0.033,0.0022,0.0023,140.001,45.000,31481.93194,1.87630,397.578,36.697,45.068,45.000,0.00,0.09,-272.75,-272.80,-7,490,-943,22.2,11.1,-9.6,22.3,11.3,-9.3,5.73,2.04,-6.8,28.7
2015-10-13 00:20:00,0.0,1.96434,0.02937,400.991,1.203,0.3179,0.1266,140.016,45.000,31709.32714,1.96709,402.433,36.699,45.068,45.000,0.00,0.09,-272.74,-272.81,-9,522,-942,22.2,11.1,-9.6,22.4,11.2,-9.3,5.73,1.81,-6.8,28.7
2015-10-13 00:21:00,0.0,1.97492,0.00041,401.300,0.035,0.3864,0.0042,139.999,45.000,31725.94018,1.98247,403.182,36.699,45.068,45.000,0.00,0.09,-272.74,-272.80,-10,523,-942,22.3,11.1,-9.5,22.4,11.3,-9.2,5.73,1.87,-6.8,28.7
2015-10-13 00:22:00,0.0,1.97503,0.00043,401.300,0.032,0.3913,0.0018,139.996,45.000,31733.43529,1.98271,403.210,36.694,45.068,45.000,0.00,0.09,-272.74,-272.80,-8,524,-942,22.3,11.2,-9.4,22.4,11.3,-9.1,5.73,2.10,-6.8,28.7
2015-10-13 00:23:00,0.0,1.97464,0.00057,401.271,0.050,0.3894,0.0023,139.999,45.000,31738.08016,1.98234,403.174,36.699,45.068,45.000,0.00,0.09,-272.74,-272.81,-9,524,-942,22.3,11.1,-9.5,22.4,11.3,-9.2,5.73,1.73,-6.8,28.7
2015-10-13 00:24:00,0.0,1.97435,0.00051,401.270,0.041,0.3885,0.0025,139.999,45.000,31742.00935,1.98198,403.165,36.689,45.068,45.000,0.00,0.09,-272.75,-272.80,-10,524,-942,22.3,11.0,-9.6,22.4,11.2,-9.2,5.73,2.06,-6.8,28.7
2015-10-13 00:25:00,0.0,1.97429,0.00057,401.283,0.027,0.3885,0.0020,139.998,45.000,31746.60148,1.98192,403.178,36.691,45.068,45.000,0.00,0.09,-272.74,-272.81,-8,524,-942,22.3,11.0,-9.6,22.5,11.2,-9.3,5.73,1.91,-6.8,28.8
2015-10-13 00:26:00,0.0,1.97429,0.00040,401.295,0.039,0.3893,0.0016,140.000,45.000,31750.73075,1.98196,403.196,36.698,45.068,45.000,0.00,0.09,-272.74,-272.80,-9,524,-942,22.3,11.0,-9.6,22.4,11.2,-9.3,5.73,1.81,-6.8,28.8
2015-10-13 00:27:00,0.0,1.97429,0.00032,401.283,0.035,0.3905,0.0017,139.998,45.000,31754.12429,1.98194,403.188,36.705,45.068,45.000,0.00,0.09,-272.75,-272.81,-10,525,-943,22.3,11.0,-9.6,22.5,11.2,-9.2,5.73,2.12,-6.8,28.7
2015-10-13 00:28:00,0.0,1.97445,0.00057,401.256,0.047,0.3916,0.0018,139.999,45.000,31757.41984,1.98215,403.168,36.724,45.068,45.000,0.00,0.09,-272.74,-272.80,-8,525,-942,22.3,11.0,-9.6,22.5,11.2,-9.3,5.73,1.73,-6.8,28.7
2015-10-13 00:29:00,0.0,1.97417,0.00040,401.238,0.045,0.3891,0.0022,140.001,45.000,31760.14630,1.98181,403.136,36.720,45.068,45.000,0.00,0.09,-272.75,-272.79,-9,525,-942,22.3,11.0,-9.6,22.5,11.1,-9.3,5.73,2.03,-6.8,28.7
2015-10-13 00:30:00,0.0,1.97398,0.00039,401.202,0.038,0.3891,0.0020,140.000,45.000,31761.90010,1.98166,403.101,36.732,45.068,45.000,0.00,0.09,-272.74,-272.81,-10,525,-942,22.3,11.0,-9.6,22.5,11.1,-9.2,5.73,1.95,-6.8,28.7
2015-10-13 00:31:00,0.0,1.97396,0.00030,401.198,0.045,0.3887,0.0019,139.999,45.000,31762.92534,1.98156,403.094,36.728,45.068,45.000,0.00,0.09,-272.74,-272.80,-8,525,-942,22.3,10.9,-9.7,22.5,11.1,-9.3,5.73,1.78,-6.8,28.8
2015-10-13 00:32:00,0.0,1.97343,0.00026,401.168,0.035,0.3904,0.0023,140.000,45.000,31763.29336,1.98115,403.071,36.720,45.068,45.000,0.00,0.09,-272.74,-272.80,-9,525,-942,22.3,11.0,-9.6,22.5,11.1,-9.3,5.73,2.12,-6.8,28.8
2015-10-13 00:33:00,0.0,1.97325,0.00035,401.172,0.035,0.3912,0.0017,139.999,45.000,31764.89415,1.98090,403.083,36.734,45.068,45.000,0.00,0.09,-272.74,-272.81,-10,525,-942,22.3,11.0,-9.6,22.5,11.2,-9.3,5.73,1.75,-6.8,28.8
2015-10-13 00:34:00,0.0,1.97332,0.00045,401.164,0.027,0.3925,0.0027,139.999,45.000,31768.22959,1.98103,403.079,36.746,45.068,45.000,0.00,0.09,-272.75,-272.80,-8,525,-943,22.3,11.0,-9.6,22.5,11.1,-9.3,5.73,2.01,-6.7,28.8
2015-10-13 00:35:00,0.0,1.97367,0.00042,401.207,0.029,0.3922,0.0025,140.000,45.000,31769.28710,1.98138,403.120,36.749,45.068,45.000,0.00,0.09,-272.73,-272.80,-9,525,-943,22.3,11.1,-9.5,22.5,11.2,-9.2,5.73,1.97,-6.8,28.8
2015-10-13 00:36:00,0.0,1.97349,0.00038,401.193,0.043,0.3944,0.0023,140.000,45.000,31769.09591,1.98122,403.118,36.748,45.068,45.000,0.00,0.09,-272.74,-272.80,-10,525,-942,22.3,11.1,-9.5,22.5,11.2,-9.2,5.73,1.77,-6.7,28.8
2015-10-13 00:37:00,0.0,1.97336,0.00047,401.172,0.095,0.3951,0.0017,140.000,45.000,31770.22846,1.98110,403.099,36.749,45.068,45.000,0.00,0.09,-272.75,-272.80,-8,525,-942,22.3,11.1,-9.5,22.5,11.2,-9.1,5.73,2.12,-6.8,28.8
2015-10-13 00:38:00,0.0,1.97321,0.00067,401.131,0.073,0.3962,0.0017,139.999,45.000,31769.77414,1.98101,403.066,36.740,45.068,45.000,0.00,0.09,-272.74,-272.80,-9,525,-943,22.3,11.2,-9.4,22.5,11.3,-9.1,5.73,1.76,-6.7,28.8
2015-10-13 00:39:00,0.0,1.97352,0.00041,401.148,0.038,0.3957,0.0009,139.999,45.000,31769.79813,1.98129,403.078,36.742,45.068,45.000,0.00,0.09,-272.75,-272.80,-10,526,-942,22.3,11.2,-9.4,22.5,11.3,-9.1,5.73,2.00,-6.7,28.8
2015-10-13 00:40:00,0.0,1.97302,0.00055,401.081,0.063,0.3955,0.0023,140.000,45.000,31770.65553,1.98082,403.014,36.750,45.068,45.000,0.00,0.09,-272.75,-272.81,-8,525,-943,22.3,11.2,-9.4,22.5,11.3,-9.2,5.73,1.98,-6.8,28.8
2015-10-13 00:41:00,0.0,1.97324,0.00052,401.125,0.062,0.3938,0.0021,140.001,45.000,31772.16090,1.98097,403.043,36.750,45.068,45.000,0.00,0.09,-272.74,-272.80,-9,525,-943,22.2,11.1,-9.5,22.5,11.2,-9.2,5.73,1.77,-6.7,28.8
2015-10-13 00:42:00,0.0,1.97337,0.00044,401.155,0.092,0.3922,0.0023,140.000,45.000,31773.17585,1.98107,403.070,36.749,45.068,45.000,0.00,0.09,-272.74,-272.80,-10,526,-943,22.3,11.0,-9.6,22.5,11.2,-9.3,5.73,2.12,-6.7,28.8
2015-10-13 00:43:00,0.0,1.97360,0.00041,401.245,0.066,0.3890,0.0022,140.001,45.000,31774.06600,1.98125,403.144,36.752,45.068,45.000,0.00,0.09,-272.74,-272.80,-8,526,-943,22.3,11.0,-9.7,22.5,11.1,-9.3,5.73,1.75,-6.7,28.8
2015-10-13 00:44:00,0.0,1.97285,0.00052,401.077,0.094,0.3901,0.0022,139.999,45.000,31774.18191,1.98051,402.984,36.750,45.068,45.000,0.00,0.09,-272.75,-272.80,-9,526,-943,22.2,11.0,-9.6,22.5,11.1,-9.4,5.73,2.00,-6.7,28.8
2015-10-13 00:45:00,0.0,1.97324,0.00030,401.131,0.054,0.3910,0.0020,140.000,45.000,31775.22796,1.98092,403.036,36.750,45.068,45.000,0.00,0.09,-272.74,-272.80,-9,526,-943,22.2,11.1,-9.6,22.5,11.1,-9.3,5.73,1.96,-6.7,28.8
2015-10-13 00:46:00,0.0,1.97244,0.00055,400.989,0.081,0.3931,0.0014,139.996,45.000,31773.46276,1.98013,402.906,36.750,45.068,45.000,0.00,0.09,-272.74,-272.80,-8,525,-943,22.2,11.2,-9.5,22.5,11.2,-9.2,5.73,1.78,-6.7,28.8
2015-10-13 00:47:00,0.0,1.97256,0.00045,400.999,0.071,0.3985,0.0028,139.999,45.000,31774.57757,1.98044,402.944,36.753,45.068,45.000,0.00,0.09,-272.75,-272.81,-9,525,-943,22.2,11.3,-9.3,22.4,11.3,-9.1,5.73,2.13,-6.8,28.8
2015-10-13 00:48:00,0.0,1.97239,0.00095,400.883,0.110,0.4035,0.0020,140.002,45.000,31775.15618,1.98033,402.857,36.762,45.068,45.000,0.00,0.09,-272.73,-272.80,-9,526,-943,22.2,11.4,-9.2,22.4,11.5,-8.9,5.73,1.75,-6.7,28.8
2015-10-13 00:49:00,0.0,1.97196,0.00050,400.826,0.054,0.3979,0.0020,140.001,45.000,31774.67082,1.97977,402.765,36.772,45.068,45.000,0.00,0.09,-272.74,-272.79,-8,526,-943,22.2,11.3,-9.3,22.4,11.4,-9.0,5.73,2.01,-6.7,28.8
2015-10-13 00:50:00,0.0,1.97195,0.00045,400.817,0.040,0.3965,0.0026,139.999,45.000,31774.76772,1.97972,402.750,36.778,45.068,45.000,0.00,0.09,-272.74,-272.81,-10,525,-943,22.1,11.3,-9.4,22.4,11.3,-9.1,5.73,1.97,-6.7,28.8
2015-10-13 00:51:00,0.0,1.97144,0.00061,400.783,0.078,0.3940,0.0042,140.002,45.000,31774.45400,1.97918,402.704,36.802,45.068,45.000,0.00,0.09,-272.75,-272.80,-9,526,-943,22.1,11.2,-9.5,22.4,11.2,-9.2,5.73,1.77,-6.7,28.8
2015-10-13 00:52:00,0.0,1.97238,0.00047,400.904,0.063,0.3980,0.0026,139.998,45.000,31774.61356,1.98016,402.845,36.804,45.068,45.000,0.00,0.09,-272.75,-272.80,-8,525,-943,22.1,11.3,-9.3,22.4,11.3,-9.1,5.73,2.12,-6.7,28.8
2015-10-13 00:53:00,0.0,1.97172,0.00064,400.858,0.065,0.3966,0.0017,139.999,45.000,31777.86590,1.97944,402.790,36.811,45.068,45.000,0.00,0.09,-272.74,-272.80,-10,525,-943,22.1,11.3,-9.4,22.4,11.3,-9.1,5.73,1.77,-6.7,28.8
2015-10-13 00:54:00,0.0,1.97253,0.00075,400.974,0.095,0.3977,0.0029,140.002,45.000,31778.72446,1.98037,402.913,36.807,45.068,45.000,0.00,0.09,-272.75,-272.81,-9,526,-943,22.1,11.3,-9.4,22.4,11.3,-9.1,5.73,1.97,-6.7,28.8
2015-10-13 00:55:00,0.0,1.97261,0.00055,401.010,0.071,0.3980,0.0024,139.999,45.000,31775.96275,1.98044,402.953,36.803,45.068,45.000,0.00,0.09,-272.74,-272.80,-8,526,-943,22.1,11.3,-9.4,22.4,11.4,-9.1,5.73,2.01,-6.7,28.8
2015-10-13 00:56:00,0.0,1.97231,0.00054,401.059,0.057,0.3888,0.0043,139.998,45.000,31775.78013,1.97992,402.953,36.800,45.068,45.000,0.00,0.09,-272.74,-272.79,-9,525,-943,22.1,11.1,-9.6,22.4,11.2,-9.2,5.73,1.75,-6.7,28.8
2015-10-13 00:57:00,0.0,1.97319,0.00048,401.154,0.052,0.3878,0.0021,139.999,45.000,31774.44687,1.98079,403.046,36.810,45.068,45.000,0.00,0.09,-272.75,-272.81,-9,525,-943,22.1,11.0,-9.7,22.4,11.1,-9.4,5.73,2.13,-6.7,28.8
2015-10-13 00:58:00,0.0,1.97319,0.00036,401.193,0.034,0.3831,0.0018,139.999,45.000,31775.74893,1.98069,403.062,36.807,45.068,45.000,0.00,0.09,-272.74,-272.80,-8,525,-943,22.1,10.9,-9.9,22.4,11.0,-9.5,5.73,1.79,-6.7,28.8
2015-10-13 00:59:00,0.0,1.97279,0.00050,401.131,0.041,0.3838,0.0019,139.997,45.000,31775.88377,1.98038,403.006,36.800,45.068,45.000,0.00,0.09,-272.74,-272.79,-10,525,-943,22.1,10.9,-9.9,22.4,11.0,-9.5,5.73,1.95,-6.7,28.8
2015-10-13 01:00:00,0.0,1.97158,0.00059,400.984,0.068,0.3811,0.0025,140.002,45.000,31778.40383,1.97903,402.839,36.792,45.068,45.000,0.00,0.09,-272.74,-272.81,-9,526,-943,22.1,10.8,-9.9,22.4,10.9,-9.6,5.73,2.03,-6.7,28.8
2015-10-13 01:01:00,0.0,1.97169,0.00034,401.013,0.051,0.3843,0.0030,140.000,45.000,31780.51385,1.97929,402.892,36.778,45.068,45.000,0.00,0.09,-272.74,-272.81,-8,525,-943,22.1,10.9,-9.9,22.4,11.0,-9.5,5.73,1.73,-6.7,28.7
2015-10-13 01:02:00,0.0,1.97173,0.00046,401.021,0.060,0.3822,0.0030,139.999,45.000,31778.14860,1.97919,402.882,36.797,45.068,45.000,0.00,0.09,-272.74,-272.80,-10,525,-943,22.1,10.8,-9.9,22.4,10.9,-9.6,5.73,2.12,-6.7,28.8
2015-10-13 01:03:00,0.0,1.97236,0.00052,401.115,0.041,0.3858,0.0018,139.999,45.000,31778.07809,1.97992,402.995,36.809,45.068,45.000,0.00,0.09,-272.74,-272.80,-9,525,-943,22.1,11.0,-9.8,22.4,11.0,-9.5,5.73,1.81,-6.7,28.8
2015-10-13 01:04:00,0.0,1.97279,0.00048,401.175,0.036,0.3881,0.0027,140.001,45.000,31779.77185,1.98040,403.067,36.813,45.068,45.000,0.00,0.09,-272.75,-272.80,-8,525,-943,22.1,11.0,-9.7,22.4,11.1,-9.4,5.73,1.92,-6.7,28.8
2015-10-13 01:05:00,0.0,1.97328,0.00048,401.227,0.039,0.3858,0.0029,139.999,45.000,31779.76495,1.98082,403.106,36.813,45.068,45.000,0.00,0.09,-272.75,-272.80,-10,526,-943,22.1,11.0,-9.8,22.4,11.0,-9.5,5.73,2.05,-6.7,28.8
2015-10-13 01:06:00,0.0,1.97364,0.00034,401.255,0.041,0.3906,0.0015,140.002,45.000,31779.59256,1.98130,403.163,36.818,45.068,45.000,0.00,0.09,-272.74,-272.80,-9,526,-943,22.1,11.1,-9.7,22.4,11.1,-9.4,5.73,1.74,-6.7,28.8
2015-10-13 01:07:00,0.0,1.97362,0.00053,401.277,0.033,0.3878,0.0020,140.000,45.000,31778.47723,1.98124,403.168,36.815,45.068,45.000,0.00,0.09,-272.75,-272.81,-8,525,-943,22.1,11.0,-9.7,22.4,11.1,-9.4,5.73,2.12,-6.7,28.8
2015-10-13 01:08:00,0.0,1.97358,0.00046,401.310,0.033,0.3868,0.0033,139.999,45.000,31776.34212,1.98119,403.198,36.823,45.068,45.000,0.00,0.09,-272.74,-272.81,-10,525,-943,22.0,11.0,-9.8,22.3,11.1,-9.5,5.73,1.79,-6.7,28.8
2015-10-13 01:09:00,0.0,1.97380,0.00033,401.342,0.040,0.3835,0.0023,140.000,45.000,31774.35529,1.98133,403.212,36.835,45.068,45.000,0.00,0.09,-272.74,-272.80,-9,526,-943,22.0,10.9,-9.9,22.3,11.0,-9.6,5.73,1.95,-6.7,28.8
2015-10-13 01:10:00,0.0,1.97385,0.00038,401.379,0.043,0.3840,0.0021,140.001,45.000,31773.64439,1.98137,403.253,36.829,45.068,45.000,0.00,0.09,-272.74,-272.80,-8,525,-943,22.0,10.9,-9.9,22.3,11.0,-9.6,5.73,2.02,-6.7,28.8
2015-10-13 01:11:00,0.0,1.97398,0.00038,401.403,0.037,0.3874,0.0026,139.998,45.000,31771.86276,1.98158,403.293,36.828,45.068,45.000,0.00,0.09,-272.75,-272.80,-10,525,-943,22.0,11.0,-9.8,22.3,11.1,-9.5,5.73,1.74,-6.7,28.8
2015-10-13 01:12:00,0.0,1.97419,0.00039,401.418,0.030,0.3854,0.0023,140.000,45.000,31773.20230,1.98175,403.299,36.833,45.068,45.000,0.00,0.09,-272.74,-272.80,-8,525,-943,22.0,11.0,-9.7,22.3,11.1,-9.5,5.73,2.12,-6.7,28.7
2015-10-13 01:13:00,0.0,1.97406,0.00040,401.390,0.038,0.3860,0.0025,140.001,45.000,31773.01365,1.98168,403.276,36.833,45.068,45.000,0.00,0.09,-272.74,-272.81,-8,525,-943,22.0,11.0,-9.8,22.3,11.1,-9.5,5.73,1.80,-6.7,28.7
2015-10-13 01:14:00,0.0,1.97411,0.00049,401.386,0.033,0.3858,0.0017,140.002,45.000,31773.73139,1.98169,403.269,36.821,45.068,45.000,0.00,0.09,-272.75,-272.81,-10,525,-943,22.0,11.0,-9.8,22.3,11.1,-9.5,5.73,1.93,-6.7,28.7
2015-10-13 01:15:00,0.0,1.97374,0.00039,401.354,0.029,0.3866,0.0018,139.999,45.000,31774.03287,1.98133,403.241,36.813,45.068,45.000,0.00,0.09,-272.74,-272.81,-9,526,-943,22.0,11.0,-9.8,22.3,11.1,-9.5,5.73,2.05,-6.7,28.7
2015-10-13 01:16:00,0.0,1.97374,0.00031,401.339,0.038,0.3888,0.0016,140.000,45.000,31773.91571,1.98136,403.237,36.812,45.068,45.000,0.00,0.09,-272.73,-272.80,-8,525,-943,22.1,11.1,-9.7,22.3,11.1,-9.4,5.73,1.73,-6.7,28.7
2015-10-13 01:17:00,0.0,1.97342,0.00036,401.309,0.031,0.3879,0.0024,140.001,45.000,31775.27737,1.98103,403.202,36.813,45.068,45.000,0.00,0.09,-272.75,-272.81,-10,525,-943,22.0,11.1,-9.7,22.3,11.1,-9.4,5.73,2.10,-6.7,28.7
2015-10-13 01:18:00,0.0,1.97332,0.00042,401.297,0.036,0.3879,0.0022,140.000,45.000,31775.05286,1.98095,403.188,36.813,45.068,45.000,0.00,0.09,-272.74,-272.81,-9,525,-943,22.0,11.1,-9.7,22.3,11.1,-9.4,5.73,1.85,-6.7,28.7
2015-10-13 01:19:00,0.0,1.97330,0.00048,401.309,0.033,0.3891,0.0020,140.000,45.000,31773.81642,1.98098,403.210,36.813,45.068,45.000,0.00,0.09,-272.75,-272.80,-8,525,-943,22.1,11.1,-9.7,22.3,11.1,-9.4,5.73,1.87,-6.7,28.7
2015-10-13 01:20:00,0.0,1.97337,0.00048,401.321,0.031,0.3870,0.0035,139.998,45.000,31771.66884,1.98091,403.208,36.813,45.068,45.000,0.00,0.09,-272.75,-272.80,-10,525,-943,22.1,11.0,-9.7,22.3,11.1,-9.5,5.73,2.09,-6.7,28.7
2015-10-13 01:21:00,0.0,1.97316,0.00038,401.281,0.036,0.3884,0.0022,139.997,45.000,31770.68784,1.98083,403.178,36.813,45.068,45.000,0.00,0.09,-272.75,-272.81,-9,525,-943,22.1,11.1,-9.7,22.3,11.2,-9.4,5.73,1.73,-6.7,28.7
2015-10-13 01:22:00,0.0,1.97308,0.00045,401.251,0.028,0.3878,0.0026,140.002,45.000,31772.21974,1.98066,403.142,36.813,45.068,45.000,0.00,0.09,-272.74,-272.79,-9,525,-943,22.0,11.1,-9.7,22.3,11.1,-9.4,5.73,2.08,-6.7,28.7
2015-10-13 01:23:00,0.0,1.97287,0.00056,401.228,0.033,0.3910,0.0016,139.999,45.000,31771.89813,1.98059,403.136,36.814,45.068,45.000,0.00,0.09,-272.73,-272.80,-10,525,-943,22.1,11.2,-9.6,22.3,11.2,-9.4,5.73,1.89,-6.7,28.7
2015-10-13 01:24:00,0.0,1.97274,0.00040,401.192,0.037,0.3917,0.0017,140.000,45.000,31772.29093,1.98042,403.104,36.813,45.068,45.000,0.00,0.09,-272.74,-272.80,-9,525,-943,22.1,11.2,-9.6,22.3,11.2,-9.3,5.73,1.83,-6.6,28.7
2015-10-13 01:25:00,0.0,1.97231,0.00044,401.182,0.032,0.3898,0.0023,140.001,45.000,31774.37747,1.97998,403.085,36.814,45.068,45.000,0.00,0.09,-272.75,-272.80,-8,525,-943,22.1,11.1,-9.7,22.3,11.2,-9.4,5.73,2.11,-6.6,28.7
2015-10-13 01:26:00,0.0,1.97214,0.00045,401.142,0.046,0.3903,0.0018,139.999,45.000,31774.67135,1.97981,403.047,36.816,45.068,45.000,0.00,0.09,-272.73,-272.80,-10,525,-943,22.1,11.2,-9.6,22.3,11.2,-9.4,5.73,1.73,-6.7,28.7
2015-10-13 01:27:00,0.0,1.97212,0.00052,401.104,0.040,0.3932,0.0020,140.000,45.000,31776.79389,1.97984,403.022,36.820,45.068,45.000,0.00,0.09,-272.75,-272.80,-9,525,-943,22.1,11.2,-9.5,22.3,11.2,-9.3,5.73,2.05,-6.7,28.8
2015-10-13 01:28:00,0.0,1.97228,0.00057,401.104,0.029,0.3946,0.0020,140.001,45.000,31776.88093,1.98002,403.029,36.824,45.068,45.000,0.00,0.09,-272.74,-272.81,-9,525,-943,22.1,11.3,-9.5,22.3,11.3,-9.2,5.73,1.91,-6.6,28.8
2015-10-13 01:29:00,0.0,1.97190,0.00048,401.078,0.034,0.3946,0.0018,139.996,45.000,31774.15917,1.97966,403.005,36.824,45.068,45.000,0.00,0.09,-272.74,-272.80,-10,525,-943,22.0,11.3,-9.5,22.3,11.3,-9.2,5.73,1.83,-6.6,28.8
2015-10-13 01:30:00,0.0,1.97153,0.00049,401.048,0.031,0.3927,0.0025,139.997,45.000,31773.83117,1.97921,402.964,36.861,45.068,45.000,0.00,0.09,-272.74,-272.80,-8,525,-943,22.0,11.2,-9.6,22.3,11.3,-9.3,5.73,2.11,-6.6,28.8
2015-10-13 01:31:00,0.0,1.97103,0.00040,400.925,0.053,0.3938,0.0022,140.000,45.000,31773.90481,1.97883,402.848,36.873,45.068,45.000,0.00,0.09,-272.75,-272.81,-9,525,-943,22.0,11.2,-9.5,22.3,11.3,-9.2,5.73,1.73,-6.6,28.8
2015-10-13 01:32:00,0.0,1.97090,0.00037,400.857,0.024,0.3925,0.0018,140.001,45.000,31773.15944,1.97858,402.773,36.875,45.068,45.000,0.00,0.09,-272.74,-272.80,-10,525,-943,22.0,11.2,-9.6,22.3,11.3,-9.3,5.73,2.08,-6.6,28.8
2015-10-13 01:33:00,0.0,1.97118,0.00042,400.878,0.034,0.3953,0.0015,139.999,45.000,31772.33349,1.97892,402.804,36.875,45.067,45.000,0.00,0.09,-272.74,-272.81,-8,526,-943,22.0,11.3,-9.5,22.3,11.3,-9.3,5.73,1.88,-6.6,28.7
2015-10-13 01:34:00,0.0,1.97096,0.00038,400.857,0.045,0.3953,0.0021,140.001,45.000,31775.50514,1.97873,402.785,36.875,45.068,45.000,0.00,0.09,-272.75,-272.80,-9,525,-943,22.0,11.3,-9.5,22.3,11.3,-9.2,5.73,1.85,-6.7,28.7
2015-10-13 01:35:00,0.0,1.97101,0.00043,400.858,0.032,0.3964,0.0019,139.999,45.000,31774.77074,1.97878,402.792,36.875,45.068,45.000,0.00,0.09,-272.74,-272.81,-10,525,-943,22.0,11.3,-9.4,22.3,11.4,-9.2,5.73,2.10,-6.7,28.7
2015-10-13 01:36:00,0.0,1.97066,0.00046,400.841,0.036,0.3978,0.0017,139.997,45.000,31774.85906,1.97848,402.780,36.874,45.068,45.000,0.00,0.09,-272.73,-272.80,-8,525,-943,22.0,11.4,-9.4,22.3,11.4,-9.1,5.73,1.73,-6.6,28.7
2015-10-13 01:37:00,0.0,1.97049,0.00058,400.817,0.041,0.3951,0.0019,140.000,45.000,31774.71141,1.97826,402.743,36.875,45.068,45.000,0.00,0.09,-272.75,-272.80,-9,525,-943,22.0,11.3,-9.4,22.2,11.4,-9.2,5.73,2.08,-6.6,28.7
2015-10-13 01:38:00,0.0,1.97036,0.00039,400.781,0.040,0.3943,0.0029,140.000,45.000,31773.93597,1.97810,402.705,36.882,45.068,45.000,0.00,0.09,-272.74,-272.81,-10,525,-943,22.0,11.3,-9.5,22.3,11.4,-9.2,5.73,1.89,-6.6,28.7
2015-10-13 01:39:00,0.0,1.97066,0.00059,400.828,0.044,0.3947,0.0025,140.002,45.000,31776.12517,1.97837,402.750,36.878,45.068,45.000,0.00,0.09,-272.74,-272.80,-8,525,-943,22.0,11.3,-9.5,22.3,11.3,-9.2,5.73,1.83,-6.6,28.6
2015-10-13 01:40:00,0.0,1.97106,0.00053,400.913,0.053,0.3948,0.0024,140.002,45.000,31774.79168,1.97881,402.840,36.876,45.068,45.000,0.00,0.09,-272.75,-272.80,-9,525,-943,22.0,11.3,-9.5,22.3,11.3,-9.2,5.73,2.11,-6.6,28.7
2015-10-13 01:41:00,0.0,1.97062,0.00041,400.851,0.047,0.3945,0.0020,139.999,45.000,31775.45654,1.97837,402.774,36.874,45.068,45.000,0.00,0.09,-272.74,-272.82,-10,525,-943,22.0,11.3,-9.5,22.3,11.4,-9.2,5.73,1.73,-6.6,28.6
2015-10-13 01:42:00,0.0,1.97112,0.00032,400.879,0.037,0.3961,0.0026,140.003,45.000,31775.67042,1.97889,402.809,36.872,45.068,45.000,0.00,0.09,-272.75,-272.80,-8,525,-943,22.0,11.3,-9.4,22.3,11.4,-9.2,5.73,2.05,-6.6,28.7
2015-10-13 01:43:00,0.0,1.97119,0.00049,400.918,0.042,0.3957,0.0017,140.000,45.000,31775.17921,1.97895,402.847,36.873,45.068,45.000,0.00,0.09,-272.73,-272.80,-9,525,-943,22.0,11.3,-9.4,22.3,11.4,-9.1,5.73,1.93,-6.6,28.6
2015-10-13 01:44:00,0.0,1.97127,0.00029,400.910,0.040,0.3978,0.0016,140.001,45.000,31777.25265,1.97908,402.850,36.875,45.068,45.000,0.00,0.09,-272.74,-272.80,-10,525,-943,22.0,11.4,-9.3,22.3,11.4,-9.1,5.73,1.80,-6.6,28.7
2015-10-13 01:45:00,0.0,1.97088,0.00039,400.843,0.046,0.3965,0.0023,139.999,45.000,31779.26875,1.97866,402.778,36.878,45.068,45.000,0.00,0.09,-272.75,-272.80,-8,525,-943,22.0,11.4,-9.4,22.3,11.5,-9.0,5.73,2.12,-6.6,28.6